Flag for U.S.A. Weather past 2 weeks in Jacksonville, Florida, U.S.A.

Now
79 °F

Clear.


Feels Like: 83 °F
Forecast: 76 / 86 °F
Wind: 3 mph from Northwest

Location: Jacksonville Naval Air Station

Current Time: Aug 29, 2015 at 3:51:50 AM

Latest Report: Aug 29, 2015 at 2:53 AM


Visibility: 10 mi

Pressure: 30.05 "Hg

Humidity: 84%

Dew point: 74 °F

Location of JacksonvilleLocation

Historic Weather in Jacksonville — Graph

°F

Jacksonville temperature yesterday

Maximum temperature yesterday: 92 °F (at 1:53 PM)
Minimum temperature yesterday: 79 °F (at 6:53 PM)
Average temperature yesterday: 84 °F

Past Weeks' High & Low Weather Summary

 TemperatureHumidityPressure
High98 °F (Aug 25, 1:53 PM)94% (Aug 23, 8:53 PM)30.13 "Hg (Aug 23, 8:53 PM)
Low76 °F (Aug 23, 8:53 PM)38% (Aug 25, 3:53 PM)29.83 "Hg (Aug 25, 5:53 PM)
Average85 °F70%30.00 "Hg
* Reported Aug 14 2:53 AM — Aug 29 2:53 AM, Jacksonville, Weather by CustomWeather, © 2015

Note: Actual official high and low records may vary slightly from our data, if they occured in-between our weather recording intervals... More about our weather records

Advertising

Jacksonville weather history for previous 24 hours

 ConditionsComfort  
Time TempWeatherWind HumidityBarometerVisibility
2:53 AM
Sat, Aug 29
79 °FClear.3 mph84%30.05 "Hg10 mi
1:53 AM80 °FClear.No wind85%30.06 "Hg10 mi
12:53 AM82 °FClear.No wind77%30.08 "Hg10 mi
11:53 PM
Fri, Aug 28
81 °FClear.5 mph79%30.08 "Hg10 mi
10:53 PM82 °FMostly cloudy.9 mph72%30.09 "Hg10 mi
9:53 PM83 °FLight rain. Mostly cloudy.5 mph72%30.09 "Hg10 mi
8:53 PM82 °FBroken clouds.3 mph72%30.07 "Hg10 mi
7:53 PM81 °FLight rain. Cloudy.6 mph77%30.05 "Hg10 mi
6:53 PM79 °FCloudy.10 mph74%30.05 "Hg10 mi
5:53 PM80 °FLight rain. Partly sunny.13 mph76%30.05 "Hg6 mi
4:53 PM85 °FPartly sunny.21 mph63%30.02 "Hg10 mi
3:53 PM92 °FBroken clouds.13 mph49%30.00 "Hg10 mi
2:53 PM92 °FBroken clouds.10 mph51%30.02 "Hg10 mi
1:53 PM92 °FBroken clouds.10 mph51%30.03 "Hg10 mi
12:53 PM91 °FPartly sunny.8 mph52%30.04 "Hg10 mi
11:53 AM89 °FScattered clouds.8 mph53%30.06 "Hg10 mi
10:53 AM87 °FScattered clouds.No wind61%30.05 "Hg10 mi
9:53 AM85 °FPartly sunny.7 mph65%30.04 "Hg10 mi
8:53 AM84 °FBroken clouds.10 mph65%30.02 "Hg10 mi
7:53 AM82 °FPartly cloudy.6 mph72%30.01 "Hg10 mi
6:53 AM81 °FPassing clouds.5 mph79%29.99 "Hg10 mi
5:53 AM81 °FPassing clouds.3 mph79%29.98 "Hg10 mi
4:53 AM82 °FPassing clouds.5 mph77%29.97 "Hg10 mi
3:53 AM82 °FMostly cloudy.3 mph77%29.98 "Hg10 mi
Weather by CustomWeather, © 2015

See weather overviewHow to use our weather pages